owner,sensor,date,latitude,longitude,vertical_datum,sea_water_practical_salinity,qcFlag 
ENP,ioos.station.NOAA.NDBC:LBRF1:1,2015-07-01T00:00:00Z,25.4840,-81.1330,1.5,15.2,1111122 
ENP,ioos.station.NOAA.NDBC:LBRF1:1,2015-07-01T01:00:00Z,25.4840,-81.1330,1.5,12.43,1111122 
ENP,ioos.station.NOAA.NDBC:LBRF1:1,2015-07-01T02:00:00Z,25.4840,-81.1330,1.5,11.26,1111122 
ENP,ioos.station.NOAA.NDBC:LBRF1:1,2015-07-01T03:00:00Z,25.4840,-81.1330,1.5,10.8,11111222 
ENP,ioos.station.NOAA.NDBC:LBRF1:1,2015-07-01T04:00:00Z,25.4840,-81.1330,1.5,10.68,1111122 
ENP,ioos.station.NOAA.NDBC:LBRF1:1,2015-07-01T06:00:00Z,25.4840,-81.1330,1.5,13.0,11111222 
ENP,ioos.station.NOAA.NDBC:LBRF1:1,2015-07-01T07:00:00Z,25.4840,-81.1330,1.5,18.09,1111122 
ENP,ioos.station.NOAA.NDBC:LBRF1:1,2015-07-01T08:00:00Z,25.4840,-81.1330,1.5,19.9,11111222 
ENP,ioos.station.NOAA.NDBC:LBRF1:1,2015-07-01T09:00:00Z,25.4840,-81.1330,1.5,20.54,1111122 
ENP,ioos.station.NOAA.NDBC:LBRF1:1,2015-07-01T10:00:00Z,25.4840,-81.1330,1.5,18.9,1111122 
ENP,ioos.station.NOAA.NDBC:LBRF1:1,2015-07-01T11:00:00Z,25.4840,-81.1330,1.5,15.26,1111122 
ENP,ioos.station.NOAA.NDBC:LBRF1:1,2015-07-01T12:00:00Z,25.4840,-81.1330,1.5,12.4,11111222 
ENP,ioos.station.NOAA.NDBC:LBRF1:1,2015-07-01T13:00:00Z,25.4840,-81.1330,1.5,11.13,1111122 
ENP,ioos.station.NOAA.NDBC:LBRF1:1,2015-07-01T14:00:00Z,25.4840,-81.1330,1.5,11.1,11111222 
ENP,ioos.station.NOAA.NDBC:LBRF1:1,2015-07-01T15:00:00Z,25.4840,-81.1330,1.5,11.0,1111122 
ENP,ioos.station.NOAA.NDBC:LBRF1:1,2015-07-01T16:00:00Z,25.4840,-81.1330,1.5,11.32,1111122 
ENP,ioos.station.NOAA.NDBC:LBRF1:1,2015-07-01T17:00:00Z,25.4840,-81.1330,1.5,15.93,1111122 
ENP,ioos.station.NOAA.NDBC:LBRF1:1,2015-07-01T18:00:00Z,25.4840,-81.1330,1.5,19.65,1111122 
ENP,ioos.station.NOAA.NDBC:LBRF1:1,2015-07-01T19:00:00Z,25.4840,-81.1330,1.5,21.5,11111222 
ENP,ioos.station.NOAA.NDBC:LBRF1:1,2015-07-01T20:00:00Z,25.4840,-81.1330,1.5,22.34,1111122 
ENP,ioos.station.NOAA.NDBC:LBRF1:1,2015-07-01T22:00:00Z,25.4840,-81.1330,1.5,21.51,1111122 
ENP,ioos.station.NOAA.NDBC:LBRF1:1,2015-07-02T00:00:00Z,25.4840,-81.1330,1.5,18.42,1111122 
ENP,ioos.station.NOAA.NDBC:LBRF1:1,2015-07-02T01:00:00Z,25.4840,-81.1330,1.5,14.33,1111122 
ENP,ioos.station.NOAA.NDBC:LBRF1:1,2015-07-02T02:00:00Z,25.4840,-81.1330,1.5,11.7,11111222 
ENP,ioos.station.NOAA.NDBC:LBRF1:1,2015-07-02T03:00:00Z,25.4840,-81.1330,1.5,10.81,1111122 
ENP,ioos.station.NOAA.NDBC:LBRF1:1,2015-07-02T04:00:00Z,25.4840,-81.1330,1.5,10.48,1111122 
ENP,ioos.station.NOAA.NDBC:LBRF1:1,2015-07-02T05:00:00Z,25.4840,-81.1330,1.5,10.4,11111222 
ENP,ioos.station.NOAA.NDBC:LBRF1:1,2015-07-02T06:00:00Z,25.4840,-81.1330,1.5,10.55,1111122 
ENP,ioos.station.NOAA.NDBC:LBRF1:1,2015-07-02T07:00:00Z,25.4840,-81.1330,1.5,14.27,1111122 
ENP,ioos.station.NOAA.NDBC:LBRF1:1,2015-07-02T08:00:00Z,25.4840,-81.1330,1.5,18.56,1111122 
ENP,ioos.station.NOAA.NDBC:LBRF1:1,2015-07-02T09:00:00Z,25.4840,-81.1330,1.5,19.5,11111222 
ENP,ioos.station.NOAA.NDBC:LBRF1:1,2015-07-02T10:00:00Z,25.4840,-81.1330,1.5,19.86,1111122 
ENP,ioos.station.NOAA.NDBC:LBRF1:1,2015-07-02T11:00:00Z,25.4840,-81.1330,1.5,19.45,1111122 
ENP,ioos.station.NOAA.NDBC:LBRF1:1,2015-07-02T12:00:00Z,25.4840,-81.1330,1.5,17.0,1111122 
ENP,ioos.station.NOAA.NDBC:LBRF1:1,2015-07-02T14:00:00Z,25.4840,-81.1330,1.5,11.26,1111122 
ENP,ioos.station.NOAA.NDBC:LBRF1:1,2015-07-02T15:00:00Z,25.4840,-81.1330,1.5,11.0,11111222 
ENP,ioos.station.NOAA.NDBC:LBRF1:1,2015-07-02T16:00:00Z,25.4840,-81.1330,1.5,11.58,1111122 
ENP,ioos.station.NOAA.NDBC:LBRF1:1,2015-07-02T17:00:00Z,25.4840,-81.1330,1.5,15.9,11111222 
ENP,ioos.station.NOAA.NDBC:LBRF1:1,2015-07-02T18:00:00Z,25.4840,-81.1330,1.5,19.11,1111122 
ENP,ioos.station.NOAA.NDBC:LBRF1:1,2015-07-02T19:00:00Z,25.4840,-81.1330,1.5,20.75,1111122 
ENP,ioos.station.NOAA.NDBC:LBRF1:1,2015-07-02T20:00:00Z,25.4840,-81.1330,1.5,21.5,11111222 
ENP,ioos.station.NOAA.NDBC:LBRF1:1,2015-07-02T22:00:00Z,25.4840,-81.1330,1.5,21.7,11111222 
ENP,ioos.station.NOAA.NDBC:LBRF1:1,2015-07-02T23:00:00Z,25.4840,-81.1330,1.5,21.0,11111222 
ENP,ioos.station.NOAA.NDBC:LBRF1:1,2015-07-03T00:00:00Z,25.4840,-81.1330,1.5,20.1,11111222 
ENP,ioos.station.NOAA.NDBC:LBRF1:1,2015-07-03T02:00:00Z,25.4840,-81.1330,1.5,15.9,11111222 
ENP,ioos.station.NOAA.NDBC:LBRF1:1,2015-07-03T03:00:00Z,25.4840,-81.1330,1.5,13.0,11111222 
ENP,ioos.station.NOAA.NDBC:LBRF1:1,2015-07-03T04:00:00Z,25.4840,-81.1330,1.5,11.3,11111222 
ENP,ioos.station.NOAA.NDBC:LBRF1:1,2015-07-03T06:00:00Z,25.4840,-81.1330,1.5,10.8,11111222 
ENP,ioos.station.NOAA.NDBC:LBRF1:1,2015-07-03T07:00:00Z,25.4840,-81.1330,1.5,12.3,11111222 
ENP,ioos.station.NOAA.NDBC:LBRF1:1,2015-07-03T08:00:00Z,25.4840,-81.1330,1.5,16.9,11111222 
ENP,ioos.station.NOAA.NDBC:LBRF1:1,2015-07-03T09:00:00Z,25.4840,-81.1330,1.5,19.0,11111222 
ENP,ioos.station.NOAA.NDBC:LBRF1:1,2015-07-03T10:00:00Z,25.4840,-81.1330,1.5,19.72,1111122 
ENP,ioos.station.NOAA.NDBC:LBRF1:1,2015-07-03T11:00:00Z,25.4840,-81.1330,1.5,19.9,11111222 
ENP,ioos.station.NOAA.NDBC:LBRF1:1,2015-07-03T12:00:00Z,25.4840,-81.1330,1.5,16.94,1111122 
ENP,ioos.station.NOAA.NDBC:LBRF1:1,2015-07-03T13:00:00Z,25.4840,-81.1330,1.5,14.53,1111122 
ENP,ioos.station.NOAA.NDBC:LBRF1:1,2015-07-03T14:00:00Z,25.4840,-81.1330,1.5,11.9,11111222 
ENP,ioos.station.NOAA.NDBC:LBRF1:1,2015-07-03T15:00:00Z,25.4840,-81.1330,1.5,11.0,1111122 
ENP,ioos.station.NOAA.NDBC:LBRF1:1,2015-07-03T16:00:00Z,25.4840,-81.1330,1.5,11.06,1111122 
ENP,ioos.station.NOAA.NDBC:LBRF1:1,2015-07-03T17:00:00Z,25.4840,-81.1330,1.5,12.36,1111122 
ENP,ioos.station.NOAA.NDBC:LBRF1:1,2015-07-03T18:00:00Z,25.4840,-81.1330,1.5,17.0,1111122 
ENP,ioos.station.NOAA.NDBC:LBRF1:1,2015-07-03T19:00:00Z,25.4840,-81.1330,1.5,19.8,11111222 
ENP,ioos.station.NOAA.NDBC:LBRF1:1,2015-07-03T20:00:00Z,25.4840,-81.1330,1.5,20.68,1111122 
ENP,ioos.station.NOAA.NDBC:LBRF1:1,2015-07-03T22:00:00Z,25.4840,-81.1330,1.5,21.44,1111122 
ENP,ioos.station.NOAA.NDBC:LBRF1:1,2015-07-03T23:00:00Z,25.4840,-81.1330,1.5,21.44,1111122 
ENP,ioos.station.NOAA.NDBC:LBRF1:1,2015-07-04T00:00:00Z,25.4840,-81.1330,1.5,20.48,1111122 
ENP,ioos.station.NOAA.NDBC:LBRF1:1,2015-07-04T01:00:00Z,25.4840,-81.1330,1.5,19.65,1111122 
ENP,ioos.station.NOAA.NDBC:LBRF1:1,2015-07-04T02:00:00Z,25.4840,-81.1330,1.5,17.61,1111122 
ENP,ioos.station.NOAA.NDBC:LBRF1:1,2015-07-04T04:00:00Z,25.4840,-81.1330,1.5,11.84,1111122 
ENP,ioos.station.NOAA.NDBC:LBRF1:1,2015-07-04T06:00:00Z,25.4840,-81.1330,1.5,10.1,11111222 
ENP,ioos.station.NOAA.NDBC:LBRF1:1,2015-07-04T07:00:00Z,25.4840,-81.1330,1.5,10.29,1111122 
ENP,ioos.station.NOAA.NDBC:LBRF1:1,2015-07-04T08:00:00Z,25.4840,-81.1330,1.5,12.75,1111122 
ENP,ioos.station.NOAA.NDBC:LBRF1:1,2015-07-04T09:00:00Z,25.4840,-81.1330,1.5,16.5,11111222 
ENP,ioos.station.NOAA.NDBC:LBRF1:1,2015-07-04T10:00:00Z,25.4840,-81.1330,1.5,17.68,1111122 
ENP,ioos.station.NOAA.NDBC:LBRF1:1,2015-07-04T11:00:00Z,25.4840,-81.1330,1.5,18.15,1111122 
ENP,ioos.station.NOAA.NDBC:LBRF1:1,2015-07-04T12:00:00Z,25.4840,-81.1330,1.5,18.22,1111122 
ENP,ioos.station.NOAA.NDBC:LBRF1:1,2015-07-04T13:00:00Z,25.4840,-81.1330,1.5,16.1,11111222 
ENP,ioos.station.NOAA.NDBC:LBRF1:1,2015-07-04T14:00:00Z,25.4840,-81.1330,1.5,13.67,1111122 
ENP,ioos.station.NOAA.NDBC:LBRF1:1,2015-07-04T15:00:00Z,25.4840,-81.1330,1.5,11.26,1111122 
ENP,ioos.station.NOAA.NDBC:LBRF1:1,2015-07-04T16:00:00Z,25.4840,-81.1330,1.5,10.5,11111222 
ENP,ioos.station.NOAA.NDBC:LBRF1:1,2015-07-04T17:00:00Z,25.4840,-81.1330,1.5,10.36,1111122 
ENP,ioos.station.NOAA.NDBC:LBRF1:1,2015-07-04T18:00:00Z,25.4840,-81.1330,1.5,10.94,1111122 
ENP,ioos.station.NOAA.NDBC:LBRF1:1,2015-07-04T19:00:00Z,25.4840,-81.1330,1.5,15.0,11111222 
ENP,ioos.station.NOAA.NDBC:LBRF1:1,2015-07-04T20:00:00Z,25.4840,-81.1330,1.5,17.54,1111122 
ENP,ioos.station.NOAA.NDBC:LBRF1:1,2015-07-04T21:00:00Z,25.4840,-81.1330,1.5,18.2,11111222 
ENP,ioos.station.NOAA.NDBC:LBRF1:1,2015-07-04T22:00:00Z,25.4840,-81.1330,1.5,18.83,1111122 
ENP,ioos.station.NOAA.NDBC:LBRF1:1,2015-07-04T23:00:00Z,25.4840,-81.1330,1.5,19.11,1111122 
ENP,ioos.station.NOAA.NDBC:LBRF1:1,2015-07-05T00:00:00Z,25.4840,-81.1330,1.5,18.8,11111222 
ENP,ioos.station.NOAA.NDBC:LBRF1:1,2015-07-05T01:00:00Z,25.4840,-81.1330,1.5,17.81,1111122 
ENP,ioos.station.NOAA.NDBC:LBRF1:1,2015-07-05T02:00:00Z,25.4840,-81.1330,1.5,17.27,1111122 
ENP,ioos.station.NOAA.NDBC:LBRF1:1,2015-07-05T04:00:00Z,25.4840,-81.1330,1.5,11.91,1111122 
ENP,ioos.station.NOAA.NDBC:LBRF1:1,2015-07-05T06:00:00Z,25.4840,-81.1330,1.5,10.04,1111122 
ENP,ioos.station.NOAA.NDBC:LBRF1:1,2015-07-05T07:00:00Z,25.4840,-81.1330,1.5,9.97,1111122 
ENP,ioos.station.NOAA.NDBC:LBRF1:1,2015-07-05T09:00:00Z,25.4840,-81.1330,1.5,14.4,1111122 
ENP,ioos.station.NOAA.NDBC:LBRF1:1,2015-07-05T10:00:00Z,25.4840,-81.1330,1.5,16.87,1111122 
ENP,ioos.station.NOAA.NDBC:LBRF1:1,2015-07-05T11:00:00Z,25.4840,-81.1330,1.5,17.48,1111122 
ENP,ioos.station.NOAA.NDBC:LBRF1:1,2015-07-05T12:00:00Z,25.4840,-81.1330,1.5,18.02,1111122 
ENP,ioos.station.NOAA.NDBC:LBRF1:1,2015-07-05T13:00:00Z,25.4840,-81.1330,1.5,17.54,1111122 
ENP,ioos.station.NOAA.NDBC:LBRF1:1,2015-07-05T14:00:00Z,25.4840,-81.1330,1.5,16.0,1111122 
ENP,ioos.station.NOAA.NDBC:LBRF1:1,2015-07-05T15:00:00Z,25.4840,-81.1330,1.5,13.21,1111122 
ENP,ioos.station.NOAA.NDBC:LBRF1:1,2015-07-05T16:00:00Z,25.4840,-81.1330,1.5,11.0,1111122 
ENP,ioos.station.NOAA.NDBC:LBRF1:1,2015-07-05T17:00:00Z,25.4840,-81.1330,1.5,10.5,11111222 
ENP,ioos.station.NOAA.NDBC:LBRF1:1,2015-07-05T18:00:00Z,25.4840,-81.1330,1.5,10.29,1111122 
ENP,ioos.station.NOAA.NDBC:LBRF1:1,2015-07-05T19:00:00Z,25.4840,-81.1330,1.5,11.3,11111222 
ENP,ioos.station.NOAA.NDBC:LBRF1:1,2015-07-05T20:00:00Z,25.4840,-81.1330,1.5,15.53,1111122 
ENP,ioos.station.NOAA.NDBC:LBRF1:1,2015-07-05T21:00:00Z,25.4840,-81.1330,1.5,17.5,11111222 
ENP,ioos.station.NOAA.NDBC:LBRF1:1,2015-07-05T22:00:00Z,25.4840,-81.1330,1.5,18.42,1111122 
ENP,ioos.station.NOAA.NDBC:LBRF1:1,2015-07-05T23:00:00Z,25.4840,-81.1330,1.5,19.38,1111122 
ENP,ioos.station.NOAA.NDBC:LBRF1:1,2015-07-06T00:00:00Z,25.4840,-81.1330,1.5,19.99,1111122 
ENP,ioos.station.NOAA.NDBC:LBRF1:1,2015-07-06T01:00:00Z,25.4840,-81.1330,1.5,19.79,1111122 
ENP,ioos.station.NOAA.NDBC:LBRF1:1,2015-07-06T02:00:00Z,25.4840,-81.1330,1.5,18.09,1111122 
ENP,ioos.station.NOAA.NDBC:LBRF1:1,2015-07-06T03:00:00Z,25.4840,-81.1330,1.5,18.36,1111122 
ENP,ioos.station.NOAA.NDBC:LBRF1:1,2015-07-06T04:00:00Z,25.4840,-81.1330,1.5,15.6,11111222 
ENP,ioos.station.NOAA.NDBC:LBRF1:1,2015-07-06T05:00:00Z,25.4840,-81.1330,1.5,12.6,11111222 
ENP,ioos.station.NOAA.NDBC:LBRF1:1,2015-07-06T06:00:00Z,25.4840,-81.1330,1.5,11.32,1111122 
ENP,ioos.station.NOAA.NDBC:LBRF1:1,2015-07-06T07:00:00Z,25.4840,-81.1330,1.5,11.06,1111122 
ENP,ioos.station.NOAA.NDBC:LBRF1:1,2015-07-06T08:00:00Z,25.4840,-81.1330,1.5,10.94,1111122 
ENP,ioos.station.NOAA.NDBC:LBRF1:1,2015-07-06T09:00:00Z,25.4840,-81.1330,1.5,11.1,11111222 
ENP,ioos.station.NOAA.NDBC:LBRF1:1,2015-07-06T10:00:00Z,25.4840,-81.1330,1.5,12.1,1111122 
ENP,ioos.station.NOAA.NDBC:LBRF1:1,2015-07-06T11:00:00Z,25.4840,-81.1330,1.5,14.66,1111122 
ENP,ioos.station.NOAA.NDBC:LBRF1:1,2015-07-06T12:00:00Z,25.4840,-81.1330,1.5,17.0,1111122 
ENP,ioos.station.NOAA.NDBC:LBRF1:1,2015-07-06T13:00:00Z,25.4840,-81.1330,1.5,17.9,11111222 
ENP,ioos.station.NOAA.NDBC:LBRF1:1,2015-07-06T14:00:00Z,25.4840,-81.1330,1.5,15.6,1111122 
ENP,ioos.station.NOAA.NDBC:LBRF1:1,2015-07-06T15:00:00Z,25.4840,-81.1330,1.5,12.9,11111222 
ENP,ioos.station.NOAA.NDBC:LBRF1:1,2015-07-06T16:00:00Z,25.4840,-81.1330,1.5,11.13,1111122 
ENP,ioos.station.NOAA.NDBC:LBRF1:1,2015-07-06T17:00:00Z,25.4840,-81.1330,1.5,10.29,1111122 
ENP,ioos.station.NOAA.NDBC:LBRF1:1,2015-07-06T18:00:00Z,25.4840,-81.1330,1.5,10.2,11111222 
ENP,ioos.station.NOAA.NDBC:LBRF1:1,2015-07-06T19:00:00Z,25.4840,-81.1330,1.5,10.23,1111122 
ENP,ioos.station.NOAA.NDBC:LBRF1:1,2015-07-06T20:00:00Z,25.4840,-81.1330,1.5,10.29,1111122 
ENP,ioos.station.NOAA.NDBC:LBRF1:1,2015-07-06T21:00:00Z,25.4840,-81.1330,1.5,12.6,11111222 
ENP,ioos.station.NOAA.NDBC:LBRF1:1,2015-07-06T23:00:00Z,25.4840,-81.1330,1.5,18.22,1111122 
ENP,ioos.station.NOAA.NDBC:LBRF1:1,2015-07-07T00:00:00Z,25.4840,-81.1330,1.5,19.04,1111122 
ENP,ioos.station.NOAA.NDBC:LBRF1:1,2015-07-07T01:00:00Z,25.4840,-81.1330,1.5,19.17,1111122 
ENP,ioos.station.NOAA.NDBC:LBRF1:1,2015-07-07T02:00:00Z,25.4840,-81.1330,1.5,18.15,1111122 
ENP,ioos.station.NOAA.NDBC:LBRF1:1,2015-07-07T03:00:00Z,25.4840,-81.1330,1.5,16.5,11111222 
ENP,ioos.station.NOAA.NDBC:LBRF1:1,2015-07-07T04:00:00Z,25.4840,-81.1330,1.5,13.41,1111122 
ENP,ioos.station.NOAA.NDBC:LBRF1:1,2015-07-07T05:00:00Z,25.4840,-81.1330,1.5,11.1,11111222 
ENP,ioos.station.NOAA.NDBC:LBRF1:1,2015-07-07T06:00:00Z,25.4840,-81.1330,1.5,10.16,1111122 
ENP,ioos.station.NOAA.NDBC:LBRF1:1,2015-07-07T07:00:00Z,25.4840,-81.1330,1.5,10.1,1111122 
ENP,ioos.station.NOAA.NDBC:LBRF1:1,2015-07-07T08:00:00Z,25.4840,-81.1330,1.5,10.0,11111222 
ENP,ioos.station.NOAA.NDBC:LBRF1:1,2015-07-07T09:00:00Z,25.4840,-81.1330,1.5,10.1,11111222 
ENP,ioos.station.NOAA.NDBC:LBRF1:1,2015-07-07T10:00:00Z,25.4840,-81.1330,1.5,10.7,11111222 
ENP,ioos.station.NOAA.NDBC:LBRF1:1,2015-07-07T11:00:00Z,25.4840,-81.1330,1.5,15.6,11111222 
ENP,ioos.station.NOAA.NDBC:LBRF1:1,2015-07-07T12:00:00Z,25.4840,-81.1330,1.5,17.48,1111122 
ENP,ioos.station.NOAA.NDBC:LBRF1:1,2015-07-07T13:00:00Z,25.4840,-81.1330,1.5,18.29,1111122 
ENP,ioos.station.NOAA.NDBC:LBRF1:1,2015-07-07T15:00:00Z,25.4840,-81.1330,1.5,17.27,1111122 
ENP,ioos.station.NOAA.NDBC:LBRF1:1,2015-07-07T17:00:00Z,25.4840,-81.1330,1.5,11.26,1111122 
ENP,ioos.station.NOAA.NDBC:LBRF1:1,2015-07-07T18:00:00Z,25.4840,-81.1330,1.5,10.2,11111222 
ENP,ioos.station.NOAA.NDBC:LBRF1:1,2015-07-07T19:00:00Z,25.4840,-81.1330,1.5,9.72,1111122 
ENP,ioos.station.NOAA.NDBC:LBRF1:1,2015-07-07T20:00:00Z,25.4840,-81.1330,1.5,9.72,1111122 
ENP,ioos.station.NOAA.NDBC:LBRF1:1,2015-07-07T21:00:00Z,25.4840,-81.1330,1.5,9.7,11111222 
ENP,ioos.station.NOAA.NDBC:LBRF1:1,2015-07-07T22:00:00Z,25.4840,-81.1330,1.5,9.78,1111122 
ENP,ioos.station.NOAA.NDBC:LBRF1:1,2015-07-07T23:00:00Z,25.4840,-81.1330,1.5,11.13,1111122 
ENP,ioos.station.NOAA.NDBC:LBRF1:1,2015-07-08T00:00:00Z,25.4840,-81.1330,1.5,15.26,1111122 
ENP,ioos.station.NOAA.NDBC:LBRF1:1,2015-07-08T01:00:00Z,25.4840,-81.1330,1.5,16.87,1111122 
ENP,ioos.station.NOAA.NDBC:LBRF1:1,2015-07-08T02:00:00Z,25.4840,-81.1330,1.5,17.21,1111122 
ENP,ioos.station.NOAA.NDBC:LBRF1:1,2015-07-08T03:00:00Z,25.4840,-81.1330,1.5,14.2,11111222 
ENP,ioos.station.NOAA.NDBC:LBRF1:1,2015-07-08T04:00:00Z,25.4840,-81.1330,1.5,11.65,1111122 
ENP,ioos.station.NOAA.NDBC:LBRF1:1,2015-07-08T06:00:00Z,25.4840,-81.1330,1.5,9.78,1111122 
ENP,ioos.station.NOAA.NDBC:LBRF1:1,2015-07-08T07:00:00Z,25.4840,-81.1330,1.5,9.21,1111122 
ENP,ioos.station.NOAA.NDBC:LBRF1:1,2015-07-08T08:00:00Z,25.4840,-81.1330,1.5,9.15,1111122 
ENP,ioos.station.NOAA.NDBC:LBRF1:1,2015-07-08T09:00:00Z,25.4840,-81.1330,1.5,9.1,11111222 
ENP,ioos.station.NOAA.NDBC:LBRF1:1,2015-07-08T10:00:00Z,25.4840,-81.1330,1.5,9.15,1111122 
ENP,ioos.station.NOAA.NDBC:LBRF1:1,2015-07-08T11:00:00Z,25.4840,-81.1330,1.5,9.53,1111122 
ENP,ioos.station.NOAA.NDBC:LBRF1:1,2015-07-08T12:00:00Z,25.4840,-81.1330,1.5,13.0,11111222 
ENP,ioos.station.NOAA.NDBC:LBRF1:1,2015-07-08T13:00:00Z,25.4840,-81.1330,1.5,15.2,1111122 
ENP,ioos.station.NOAA.NDBC:LBRF1:1,2015-07-08T15:00:00Z,25.4840,-81.1330,1.5,16.4,1111122 
ENP,ioos.station.NOAA.NDBC:LBRF1:1,2015-07-08T16:00:00Z,25.4840,-81.1330,1.5,13.67,1111122 
ENP,ioos.station.NOAA.NDBC:LBRF1:1,2015-07-08T17:00:00Z,25.4840,-81.1330,1.5,10.87,1111122 
ENP,ioos.station.NOAA.NDBC:LBRF1:1,2015-07-08T18:00:00Z,25.4840,-81.1330,1.5,9.78,1111122 
ENP,ioos.station.NOAA.NDBC:LBRF1:1,2015-07-08T20:00:00Z,25.4840,-81.1330,1.5,9.02,1111122 
ENP,ioos.station.NOAA.NDBC:LBRF1:1,2015-07-08T21:00:00Z,25.4840,-81.1330,1.5,8.89,1111122 
ENP,ioos.station.NOAA.NDBC:LBRF1:1,2015-07-08T22:00:00Z,25.4840,-81.1330,1.5,8.89,1111122 
ENP,ioos.station.NOAA.NDBC:LBRF1:1,2015-07-08T23:00:00Z,25.4840,-81.1330,1.5,9.0,11111222 
ENP,ioos.station.NOAA.NDBC:LBRF1:1,2015-07-09T00:00:00Z,25.4840,-81.1330,1.5,9.78,1111122 
ENP,ioos.station.NOAA.NDBC:LBRF1:1,2015-07-09T01:00:00Z,25.4840,-81.1330,1.5,13.67,1111122 
ENP,ioos.station.NOAA.NDBC:LBRF1:1,2015-07-09T02:00:00Z,25.4840,-81.1330,1.5,15.06,1111122 
ENP,ioos.station.NOAA.NDBC:LBRF1:1,2015-07-09T04:00:00Z,25.4840,-81.1330,1.5,15.0,1111122 
ENP,ioos.station.NOAA.NDBC:LBRF1:1,2015-07-09T06:00:00Z,25.4840,-81.1330,1.5,9.84,1111122 
ENP,ioos.station.NOAA.NDBC:LBRF1:1,2015-07-09T07:00:00Z,25.4840,-81.1330,1.5,9.27,1111122 
ENP,ioos.station.NOAA.NDBC:LBRF1:1,2015-07-09T08:00:00Z,25.4840,-81.1330,1.5,9.08,1111122 
ENP,ioos.station.NOAA.NDBC:LBRF1:1,2015-07-09T09:00:00Z,25.4840,-81.1330,1.5,9.0,11111222 
ENP,ioos.station.NOAA.NDBC:LBRF1:1,2015-07-09T10:00:00Z,25.4840,-81.1330,1.5,8.89,1111122 
ENP,ioos.station.NOAA.NDBC:LBRF1:1,2015-07-09T11:00:00Z,25.4840,-81.1330,1.5,9.0,11111222 
ENP,ioos.station.NOAA.NDBC:LBRF1:1,2015-07-09T12:00:00Z,25.4840,-81.1330,1.5,9.46,1111122 
ENP,ioos.station.NOAA.NDBC:LBRF1:1,2015-07-09T13:00:00Z,25.4840,-81.1330,1.5,12.56,1111122 
ENP,ioos.station.NOAA.NDBC:LBRF1:1,2015-07-09T14:00:00Z,25.4840,-81.1330,1.5,14.73,1111122 
ENP,ioos.station.NOAA.NDBC:LBRF1:1,2015-07-09T15:00:00Z,25.4840,-81.1330,1.5,15.8,1111122 
ENP,ioos.station.NOAA.NDBC:LBRF1:1,2015-07-09T16:00:00Z,25.4840,-81.1330,1.5,16.0,1111122 
ENP,ioos.station.NOAA.NDBC:LBRF1:1,2015-07-09T17:00:00Z,25.4840,-81.1330,1.5,13.7,11111222 
ENP,ioos.station.NOAA.NDBC:LBRF1:1,2015-07-09T18:00:00Z,25.4840,-81.1330,1.5,11.3,11111222 
ENP,ioos.station.NOAA.NDBC:LBRF1:1,2015-07-09T19:00:00Z,25.4840,-81.1330,1.5,9.53,1111122 
ENP,ioos.station.NOAA.NDBC:LBRF1:1,2015-07-09T20:00:00Z,25.4840,-81.1330,1.5,9.08,1111122 
ENP,ioos.station.NOAA.NDBC:LBRF1:1,2015-07-09T21:00:00Z,25.4840,-81.1330,1.5,8.7,1111122 
ENP,ioos.station.NOAA.NDBC:LBRF1:1,2015-07-09T23:00:00Z,25.4840,-81.1330,1.5,8.51,1111122 
ENP,ioos.station.NOAA.NDBC:LBRF1:1,2015-07-10T00:00:00Z,25.4840,-81.1330,1.5,8.6,11111222 
ENP,ioos.station.NOAA.NDBC:LBRF1:1,2015-07-10T01:00:00Z,25.4840,-81.1330,1.5,8.83,1111122 
ENP,ioos.station.NOAA.NDBC:LBRF1:1,2015-07-10T02:00:00Z,25.4840,-81.1330,1.5,10.61,1111122 
ENP,ioos.station.NOAA.NDBC:LBRF1:1,2015-07-10T03:00:00Z,25.4840,-81.1330,1.5,13.6,11111222 
ENP,ioos.station.NOAA.NDBC:LBRF1:1,2015-07-10T04:00:00Z,25.4840,-81.1330,1.5,14.73,1111122 
ENP,ioos.station.NOAA.NDBC:LBRF1:1,2015-07-10T05:00:00Z,25.4840,-81.1330,1.5,14.4,11111222 
ENP,ioos.station.NOAA.NDBC:LBRF1:1,2015-07-10T06:00:00Z,25.4840,-81.1330,1.5,11.71,1111122 
ENP,ioos.station.NOAA.NDBC:LBRF1:1,2015-07-10T07:00:00Z,25.4840,-81.1330,1.5,9.84,1111122 
ENP,ioos.station.NOAA.NDBC:LBRF1:1,2015-07-10T08:00:00Z,25.4840,-81.1330,1.5,9.08,1111122 
ENP,ioos.station.NOAA.NDBC:LBRF1:1,2015-07-10T09:00:00Z,25.4840,-81.1330,1.5,8.8,11111222 
ENP,ioos.station.NOAA.NDBC:LBRF1:1,2015-07-10T10:00:00Z,25.4840,-81.1330,1.5,8.83,1111122 
ENP,ioos.station.NOAA.NDBC:LBRF1:1,2015-07-10T11:00:00Z,25.4840,-81.1330,1.5,8.77,1111122 
ENP,ioos.station.NOAA.NDBC:LBRF1:1,2015-07-10T12:00:00Z,25.4840,-81.1330,1.5,8.89,1111122 
ENP,ioos.station.NOAA.NDBC:LBRF1:1,2015-07-10T13:00:00Z,25.4840,-81.1330,1.5,11.19,1111122 
ENP,ioos.station.NOAA.NDBC:LBRF1:1,2015-07-10T14:00:00Z,25.4840,-81.1330,1.5,14.3,11111222 
ENP,ioos.station.NOAA.NDBC:LBRF1:1,2015-07-10T15:00:00Z,25.4840,-81.1330,1.5,16.33,1111122 
ENP,ioos.station.NOAA.NDBC:LBRF1:1,2015-07-10T16:00:00Z,25.4840,-81.1330,1.5,17.48,1111122 
ENP,ioos.station.NOAA.NDBC:LBRF1:1,2015-07-10T17:00:00Z,25.4840,-81.1330,1.5,17.41,1111122 
ENP,ioos.station.NOAA.NDBC:LBRF1:1,2015-07-10T18:00:00Z,25.4840,-81.1330,1.5,16.1,11111222 
ENP,ioos.station.NOAA.NDBC:LBRF1:1,2015-07-10T19:00:00Z,25.4840,-81.1330,1.5,14.27,1111122 
ENP,ioos.station.NOAA.NDBC:LBRF1:1,2015-07-10T20:00:00Z,25.4840,-81.1330,1.5,11.71,1111122 
ENP,ioos.station.NOAA.NDBC:LBRF1:1,2015-07-10T21:00:00Z,25.4840,-81.1330,1.5,9.65,1111122 
ENP,ioos.station.NOAA.NDBC:LBRF1:1,2015-07-10T22:00:00Z,25.4840,-81.1330,1.5,8.8,11111222 
ENP,ioos.station.NOAA.NDBC:LBRF1:1,2015-07-10T23:00:00Z,25.4840,-81.1330,1.5,8.64,1111122 
ENP,ioos.station.NOAA.NDBC:LBRF1:1,2015-07-11T00:00:00Z,25.4840,-81.1330,1.5,8.51,1111122 
ENP,ioos.station.NOAA.NDBC:LBRF1:1,2015-07-11T01:00:00Z,25.4840,-81.1330,1.5,8.58,1111122 
ENP,ioos.station.NOAA.NDBC:LBRF1:1,2015-07-11T02:00:00Z,25.4840,-81.1330,1.5,8.89,1111122 
ENP,ioos.station.NOAA.NDBC:LBRF1:1,2015-07-11T04:00:00Z,25.4840,-81.1330,1.5,13.8,1111122 
ENP,ioos.station.NOAA.NDBC:LBRF1:1,2015-07-11T06:00:00Z,25.4840,-81.1330,1.5,15.26,1111122 
ENP,ioos.station.NOAA.NDBC:LBRF1:1,2015-07-11T07:00:00Z,25.4840,-81.1330,1.5,14.73,1111122 
ENP,ioos.station.NOAA.NDBC:LBRF1:1,2015-07-11T08:00:00Z,25.4840,-81.1330,1.5,12.4,11111222 
ENP,ioos.station.NOAA.NDBC:LBRF1:1,2015-07-11T09:00:00Z,25.4840,-81.1330,1.5,10.23,1111122 
ENP,ioos.station.NOAA.NDBC:LBRF1:1,2015-07-11T10:00:00Z,25.4840,-81.1330,1.5,9.21,1111122 
ENP,ioos.station.NOAA.NDBC:LBRF1:1,2015-07-11T11:00:00Z,25.4840,-81.1330,1.5,9.02,1111122 
ENP,ioos.station.NOAA.NDBC:LBRF1:1,2015-07-11T12:00:00Z,25.4840,-81.1330,1.5,9.0,11111222 
ENP,ioos.station.NOAA.NDBC:LBRF1:1,2015-07-11T13:00:00Z,25.4840,-81.1330,1.5,9.53,1111122 
ENP,ioos.station.NOAA.NDBC:LBRF1:1,2015-07-11T14:00:00Z,25.4840,-81.1330,1.5,11.8,11111222 
ENP,ioos.station.NOAA.NDBC:LBRF1:1,2015-07-11T15:00:00Z,25.4840,-81.1330,1.5,14.53,1111122 
ENP,ioos.station.NOAA.NDBC:LBRF1:1,2015-07-11T16:00:00Z,25.4840,-81.1330,1.5,16.53,1111122 
ENP,ioos.station.NOAA.NDBC:LBRF1:1,2015-07-11T17:00:00Z,25.4840,-81.1330,1.5,17.7,11111222 
ENP,ioos.station.NOAA.NDBC:LBRF1:1,2015-07-11T18:00:00Z,25.4840,-81.1330,1.5,17.88,1111122 
ENP,ioos.station.NOAA.NDBC:LBRF1:1,2015-07-11T19:00:00Z,25.4840,-81.1330,1.5,16.67,1111122 
ENP,ioos.station.NOAA.NDBC:LBRF1:1,2015-07-11T20:00:00Z,25.4840,-81.1330,1.5,15.06,1111122 
ENP,ioos.station.NOAA.NDBC:LBRF1:1,2015-07-11T22:00:00Z,25.4840,-81.1330,1.5,10.42,1111122 
ENP,ioos.station.NOAA.NDBC:LBRF1:1,2015-07-11T23:00:00Z,25.4840,-81.1330,1.5,8.96,1111122 
ENP,ioos.station.NOAA.NDBC:LBRF1:1,2015-07-12T00:00:00Z,25.4840,-81.1330,1.5,8.45,1111122 
ENP,ioos.station.NOAA.NDBC:LBRF1:1,2015-07-12T01:00:00Z,25.4840,-81.1330,1.5,8.4,11111222 
ENP,ioos.station.NOAA.NDBC:LBRF1:1,2015-07-12T02:00:00Z,25.4840,-81.1330,1.5,8.34,1111122 
ENP,ioos.station.NOAA.NDBC:LBRF1:1,2015-07-12T04:00:00Z,25.4840,-81.1330,1.5,10.61,1111122 
ENP,ioos.station.NOAA.NDBC:LBRF1:1,2015-07-12T06:00:00Z,25.4840,-81.1330,1.5,15.46,1111122 
ENP,ioos.station.NOAA.NDBC:LBRF1:1,2015-07-12T08:00:00Z,25.4840,-81.1330,1.5,15.8,11111222 
ENP,ioos.station.NOAA.NDBC:LBRF1:1,2015-07-12T09:00:00Z,25.4840,-81.1330,1.5,13.28,1111122 
ENP,ioos.station.NOAA.NDBC:LBRF1:1,2015-07-12T10:00:00Z,25.4840,-81.1330,1.5,10.81,1111122 
ENP,ioos.station.NOAA.NDBC:LBRF1:1,2015-07-12T11:00:00Z,25.4840,-81.1330,1.5,9.6,11111222 
ENP,ioos.station.NOAA.NDBC:LBRF1:1,2015-07-12T12:00:00Z,25.4840,-81.1330,1.5,9.27,1111122 
ENP,ioos.station.NOAA.NDBC:LBRF1:1,2015-07-12T13:00:00Z,25.4840,-81.1330,1.5,9.53,1111122 
ENP,ioos.station.NOAA.NDBC:LBRF1:1,2015-07-12T14:00:00Z,25.4840,-81.1330,1.5,12.04,1111122 
ENP,ioos.station.NOAA.NDBC:LBRF1:1,2015-07-12T15:00:00Z,25.4840,-81.1330,1.5,14.33,1111122 
ENP,ioos.station.NOAA.NDBC:LBRF1:1,2015-07-12T16:00:00Z,25.4840,-81.1330,1.5,17.0,1111122 
ENP,ioos.station.NOAA.NDBC:LBRF1:1,2015-07-12T17:00:00Z,25.4840,-81.1330,1.5,18.76,1111122 
ENP,ioos.station.NOAA.NDBC:LBRF1:1,2015-07-12T18:00:00Z,25.4840,-81.1330,1.5,19.5,11111222 
ENP,ioos.station.NOAA.NDBC:LBRF1:1,2015-07-12T19:00:00Z,25.4840,-81.1330,1.5,19.93,1111122 
ENP,ioos.station.NOAA.NDBC:LBRF1:1,2015-07-12T20:00:00Z,25.4840,-81.1330,1.5,18.83,1111122 
ENP,ioos.station.NOAA.NDBC:LBRF1:1,2015-07-12T22:00:00Z,25.4840,-81.1330,1.5,15.33,1111122 
ENP,ioos.station.NOAA.NDBC:LBRF1:1,2015-07-12T23:00:00Z,25.4840,-81.1330,1.5,12.49,1111122 
ENP,ioos.station.NOAA.NDBC:LBRF1:1,2015-07-13T00:00:00Z,25.4840,-81.1330,1.5,10.1,1111122 